Arlington, WA
on Friday, November 9, 2012

Friday
Previous Day Next Day
Daily Summary
 ActualAverageRecord
Temperature
Mean Temperature °F °F  
Max Temperature 46°F 54°F 62°F (1997)
Min Temperature 26°F 47°F 26°F (2012)
Degree Days
Heating Degree Days 29    
Moisture
Dew Point 30°F   
Average Humidity 84    
Maximum Humidity 100    
Minimum Humidity 57    
Precipitation
Precipitation 0.00 in in in ()
Wind
Wind Speed 1 mph   
Max Wind Speed 6 mph   
Max Gust Speed mph   
Visibility 8 miles   
Events     
Averages and records for this station are not official NWS values.
Key: T is trace of precipitation, MM is missing value
Source: NWS Daily Summary
Seasonal Weather Averages
Time(PST)TemperatureDew PointHumidity Pressure Visibility Wind DirectionWind SpeedGust SpeedPrecipitationEvents Conditions
12:15 AM 30.2°F 28.4°F 93% 29.86 in 1.8 miles Calm Calm - N/A   Clear
12:35 AM 28.4°F 26.6°F 93% 29.86 in 4.0 miles Calm Calm - N/A   Clear
12:55 AM 28.4°F 24.8°F 86% 29.86 in 9.0 miles North 4.6 mph - N/A   Clear
1:15 AM 28.4°F 26.6°F 93% 29.86 in 4.0 miles Calm Calm - N/A   Clear
1:35 AM 30.2°F 30.2°F 100% 29.86 in 10.0 miles Calm Calm - N/A   Clear
1:55 AM 30.2°F 28.4°F 93% 29.86 in 4.0 miles Calm Calm - N/A   Clear
2:15 AM 28.4°F 26.6°F 93% 29.87 in 0.8 miles Calm Calm - N/A   Unknown
2:35 AM 28.4°F 28.4°F 100% 29.87 in 1.0 miles Calm Calm - N/A   Clear
2:55 AM 28.4°F 26.6°F 93% 29.87 in 6.0 miles Calm Calm - N/A   Scattered Clouds
3:15 AM 28.4°F 26.6°F 93% 29.87 in 10.0 miles Calm Calm - N/A   Mostly Cloudy
3:35 AM 28.4°F 26.6°F 93% 29.87 in 10.0 miles Calm Calm - N/A   Mostly Cloudy
3:55 AM 28.4°F 24.8°F 86% 29.87 in 10.0 miles Calm Calm - N/A   Partly Cloudy
4:15 AM 28.4°F 24.8°F 86% 29.87 in 7.0 miles Calm Calm - N/A   Mostly Cloudy
4:35 AM 28.4°F 26.6°F 93% 29.88 in 10.0 miles Calm Calm - N/A   Overcast
4:55 AM 28.4°F 26.6°F 93% 29.88 in 10.0 miles Calm Calm - N/A   Overcast
5:15 AM 28.4°F 26.6°F 93% 29.88 in 10.0 miles Calm Calm - N/A   Mostly Cloudy
5:35 AM 28.4°F 26.6°F 93% 29.89 in 10.0 miles Calm Calm - N/A   Mostly Cloudy
5:55 AM 30.2°F 26.6°F 86% 29.89 in 10.0 miles Calm Calm - N/A   Overcast
6:15 AM 30.2°F 28.4°F 93% 29.89 in 10.0 miles Calm Calm - N/A   Overcast
6:35 AM 30.2°F 28.4°F 93% 29.89 in 10.0 miles North 3.5 mph - N/A   Overcast
6:55 AM 30.2°F 28.4°F 93% 29.89 in 10.0 miles Calm Calm - N/A   Overcast
7:15 AM 28.4°F 24.8°F 86% 29.89 in 10.0 miles Calm Calm - N/A   Mostly Cloudy
7:35 AM 28.4°F 26.6°F 93% 29.90 in 10.0 miles Calm Calm - N/A   Clear
7:55 AM 30.2°F 26.6°F 86% 29.90 in 10.0 miles Calm Calm - N/A   Clear
8:15 AM 30.2°F 28.4°F 93% 29.91 in 10.0 miles North 3.5 mph - N/A   Partly Cloudy
8:35 AM 32.0°F 30.2°F 93% 29.91 in 10.0 miles Calm Calm - N/A   Clear
8:55 AM 33.8°F 30.2°F 87% 29.91 in 10.0 miles Calm Calm - N/A   Partly Cloudy
9:15 AM 35.6°F 32.0°F 87% 29.91 in 10.0 miles Calm Calm - N/A   Clear
9:35 AM 35.6°F 32.0°F 87% 29.91 in 10.0 miles Calm Calm - N/A   Clear
9:55 AM 37.4°F 33.8°F 87% 29.92 in 10.0 miles Calm Calm - N/A   Clear
10:15 AM 39.2°F 33.8°F 81% 29.92 in 10.0 miles Calm Calm - N/A   Clear
10:35 AM 39.2°F 33.8°F 81% 29.92 in 10.0 miles Calm Calm - N/A   Clear
10:55 AM 41.0°F 33.8°F 76% 29.92 in 10.0 miles Calm Calm - N/A   Clear
11:15 AM 42.8°F 35.6°F 76% 29.92 in 10.0 miles Calm Calm - N/A   Clear
11:35 AM 42.8°F 35.6°F 76% 29.92 in 10.0 miles Calm Calm - N/A   Clear
11:55 AM 42.8°F 35.6°F 76% 29.92 in 10.0 miles Calm Calm - N/A   Clear
12:15 PM 44.6°F 35.6°F 71% 29.91 in 10.0 miles Calm Calm - N/A   Clear
12:35 PM 44.6°F 35.6°F 71% 29.91 in 10.0 miles Calm Calm - N/A   Clear
12:55 PM 46.4°F 35.6°F 66% 29.90 in 10.0 miles Calm Calm - N/A   Clear
1:15 PM 46.4°F 33.8°F 62% 29.91 in 10.0 miles Calm Calm - N/A   Clear
1:35 PM 46.4°F 33.8°F 62% 29.90 in 10.0 miles Calm Calm - N/A   Partly Cloudy
1:55 PM 46.4°F 33.8°F 62% 29.90 in 10.0 miles Calm Calm - N/A   Scattered Clouds
2:15 PM 46.4°F 33.8°F 62% 29.90 in 10.0 miles Calm Calm - N/A   Partly Cloudy
2:35 PM 46.4°F 32.0°F 57% 29.90 in 10.0 miles SSW 3.5 mph - N/A   Clear
2:55 PM 46.4°F 33.8°F 62% 29.90 in 10.0 miles Calm Calm - N/A   Clear
3:15 PM 44.6°F 33.8°F 66% 29.90 in 10.0 miles NW 5.8 mph - N/A   Clear
3:35 PM 44.6°F 33.8°F 66% 29.90 in 10.0 miles WNW 5.8 mph - N/A   Partly Cloudy
3:55 PM 44.6°F 33.8°F 66% 29.91 in 10.0 miles WNW 4.6 mph - N/A   Mostly Cloudy
4:15 PM 42.8°F 33.8°F 70% 29.91 in 10.0 miles NW 4.6 mph - N/A   Overcast
4:35 PM 41.0°F 32.0°F 70% 29.91 in 10.0 miles WNW 3.5 mph - N/A   Overcast
4:55 PM 39.2°F 32.0°F 75% 29.91 in 10.0 miles Calm Calm - N/A   Overcast
5:15 PM 39.2°F 32.0°F 75% 29.91 in 10.0 miles Calm Calm - N/A   Scattered Clouds
5:35 PM 37.4°F 32.0°F 81% 29.92 in 10.0 miles Calm Calm - N/A   Clear
5:55 PM 37.4°F 30.2°F 75% 29.92 in 10.0 miles Calm Calm - N/A   Clear
6:15 PM 33.8°F 28.4°F 81% 29.93 in 10.0 miles Calm Calm - N/A   Clear
6:35 PM 33.8°F 30.2°F 87% 29.92 in 10.0 miles Calm Calm - N/A   Clear
7:15 PM 33.8°F 30.2°F 87% 29.93 in 10.0 miles Calm Calm - N/A   Clear
7:35 PM 32.0°F 28.4°F 87% 29.93 in 10.0 miles NNE 3.5 mph - N/A   Clear
7:55 PM 32.0°F 30.2°F 93% 29.93 in 10.0 miles NNE 4.6 mph - N/A   Clear
8:15 PM 30.2°F 26.6°F 86% 29.94 in 10.0 miles Calm Calm - N/A   Clear
8:35 PM 32.0°F 30.2°F 93% 29.94 in 8.0 miles Calm Calm - N/A   Clear
8:55 PM 30.2°F 28.4°F 93% 29.95 in 9.0 miles Calm Calm - N/A   Clear
9:15 PM 30.2°F 28.4°F 93% 29.95 in 5.0 miles Calm Calm - N/A   Clear
9:35 PM 30.2°F 28.4°F 93% 29.95 in 6.0 miles Calm Calm - N/A   Clear
9:55 PM 30.2°F 28.4°F 93% 29.96 in 7.0 miles Calm Calm - N/A   Clear
10:15 PM 30.2°F 26.6°F 86% 29.96 in 5.0 miles Calm Calm - N/A   Clear
10:35 PM 28.4°F 28.4°F 100% 29.96 in 0.5 miles Calm Calm - N/A   Unknown
10:55 PM 28.4°F 26.6°F 93% 29.97 in 1.8 miles Calm Calm - N/A   Clear
11:15 PM 26.6°F 24.8°F 93% 29.97 in 2.5 miles Calm Calm - N/A   Clear
11:35 PM 28.4°F 26.6°F 93% 29.97 in 5.0 miles Calm Calm - N/A   Clear
11:55 PM 26.6°F 24.8°F 93% 29.98 in 1.0 miles Calm Calm - N/A   Clear
Moon Phase
Nov. 09 Nov. 13 Nov. 20 Nov. 28 Dec. 06
Sunrise:07:07 AM (PST) Moon Rise:01:51 AM (PST)11/9
Sunset:04:37 PM (PST) Moon Set:02:11 PM (PST)11/9

Copyright © 2014 The Weather Underground, Inc.